Flag for South Africa Weather past 2 weeks in Rustenburg, South Africa

Now
39 °F

Sunny.


Feels Like: 39 °F
Forecast: 40 / 74 °F
Wind: No wind

Location: Lanseria Civ / Mil

Current Time: Jul 5, 2015 at 8:07:07 AM

Latest Report: Jul 5, 2015 at 7:00 AM


Visibility: 10 mi

Pressure: 30.36 "Hg (26.29 "Hg at 1166m altitude)

Humidity: 87%

Dew point: 36 °F

Location of RustenburgLocation

Historic Weather in Rustenburg — Graph

°F

Rustenburg temperature yesterday

Maximum temperature yesterday: 68 °F (at 3:00 PM)
Minimum temperature yesterday: 41 °F (at 6:00 AM)
Average temperature yesterday: 54 °F

Past Weeks' High & Low Weather Summary

 TemperatureHumidityPressure
High70 °F (Jun 24, 3:00 PM)100% (Jun 21, 7:00 AM)30.63 "Hg (Jun 21, 7:00 AM)
Low36 °F (Jun 20, 7:00 AM)17% (Jun 25, 2:00 PM)30.24 "Hg (Jun 24, 2:00 PM)
Average53 °F58%30.39 "Hg
* Reported Jun 20 7:00 AM — Jul 5 7:00 AM, Rustenburg, Weather by CustomWeather, © 2015

Note: Actual official high and low records may vary slightly from our data, if they occured in-between our weather recording intervals... More about our weather records

Advertising

Rustenburg weather history for previous 24 hours

 ConditionsComfort  
Time TempWeatherWind HumidityBarometerVisibility
7:00 AM
Sun, Jul 5
39 °FSunny.No wind87%30.36 "Hg10 mi
6:00 AM41 °FSunny.No wind81%30.36 "Hg10 mi
5:00 AM41 °FQuite cool.2 mph81%30.33 "HgN/A
4:00 AM43 °FQuite cool.3 mph81%30.36 "HgN/A
3:00 AM45 °FQuite cool.3 mph71%30.36 "HgN/A
2:00 AM46 °FCool.5 mph71%30.36 "HgN/A
1:00 AM46 °FCool.6 mph71%30.39 "HgN/A
12:00 AM46 °FCool.3 mph66%30.39 "HgN/A
11:00 PM
Sat, Jul 4
52 °FCool.3 mph58%30.39 "HgN/A
10:00 PM50 °FClear.6 mph62%30.39 "Hg10 mi
9:00 PM55 °FClear.3 mph51%30.39 "Hg10 mi
8:00 PM57 °FClear.5 mph48%30.36 "Hg10 mi
7:00 PM59 °FPassing clouds.3 mph45%30.36 "HgN/A
6:00 PM59 °FClear.6 mph45%30.36 "Hg10 mi
5:00 PM64 °FClear.9 mph34%30.33 "Hg10 mi
4:00 PM66 °FSunny.10 mph32%30.33 "Hg10 mi
3:00 PM68 °FPassing clouds.9 mph30%30.36 "HgN/A
2:00 PM66 °FPassing clouds.8 mph32%30.36 "HgN/A
1:00 PM66 °FPassing clouds.5 mph30%30.39 "HgN/A
12:00 PM64 °FSunny.5 mph34%30.42 "Hg10 mi
11:00 AM61 °FSunny.5 mph45%30.42 "Hg10 mi
10:00 AM57 °FClear.2 mph48%30.45 "Hg6 mi
9:00 AM52 °FClear.No wind62%30.45 "Hg6 mi
8:52 AM52 °FClear.No wind62%30.45 "Hg6 mi
8:00 AM45 °FClear.2 mph76%30.45 "Hg6 mi
Weather by CustomWeather, © 2015

See weather overviewHow to use our weather pages